When you browse on this site, cookies collect data to enhance your experience and personalize the content and advertising you see.
Visit our Privacy Policy to learn more. By continuing to use the site, you agree to this use of cookies and data.
  • In France
  • List of Countries
  • For 7 days
  • Water Temperature
  • Weather Map
  • Weather Widgets
  • user-avatar
    Login

    Hourly Weather Sofia

    Today, 22 September, Sunday

    Time Temperature Precipitation Wind Pressure Humidity
    00:00 +10°C° 0 mm 1 mps 716 mmHg 50%
    01:00 +9°C° 0 mm 1 mps 716 mmHg 53%
    02:00 +9°C° 0 mm 1 mps 716 mmHg 57%
    03:00 +9°C° 0 mm 1 mps 716 mmHg 58%
    04:00 +9°C° 0 mm 1 mps 715 mmHg 60%
    05:00 +8°C° 0 mm 1 mps 715 mmHg 62%
    06:00 +10°C° 0 mm 1 mps 715 mmHg 57%
    07:00 +11°C° 0 mm 1 mps 715 mmHg 52%
    08:00 +12°C° 0 mm 1 mps 715 mmHg 47%
    09:00 +15°C° 0 mm 1 mps 716 mmHg 41%
    10:00 +19°C° 0 mm 1 mps 716 mmHg 35%
    11:00 +21°C° 0 mm 1 mps 716 mmHg 29%
    12:00 +23°C° 0 mm 1 mps 715 mmHg 27%
    13:00 +24°C° 0 mm 1 mps 715 mmHg 25%
    14:00 +26°C° 0 mm 1 mps 714 mmHg 23%
    15:00 +25°C° 0 mm 1 mps 714 mmHg 24%
    16:00 +25°C° 0 mm 1 mps 713 mmHg 25%
    17:00 +25°C° 0 mm 1 mps 712 mmHg 27%
    18:00 +22°C° 0 mm 1 mps 712 mmHg 33%
    19:00 +19°C° 0 mm 1 mps 712 mmHg 39%
    20:00 +15°C° 0 mm 1 mps 712 mmHg 44%
    21:00 +15°C° 0 mm 1 mps 712 mmHg 47%
    22:00 +14°C° 0 mm 1 mps 712 mmHg 49%
    23:00 +14°C° 0 mm 1 mps 712 mmHg 52%

    Tomorrow, 23 September, Monday

    Time Temperature Precipitation Wind Pressure Humidity
    00:00 +13°C° 0 mm 1 mps 712 mmHg 54%
    01:00 +13°C° 0 mm 1 mps 712 mmHg 57%
    02:00 +12°C° 0 mm 1 mps 711 mmHg 59%
    03:00 +12°C° 0 mm 1 mps 711 mmHg 61%
    04:00 +12°C° 0 mm 1 mps 711 mmHg 63%
    05:00 +12°C° 0 mm 1 mps 711 mmHg 64%
    06:00 +13°C° 0 mm 1 mps 711 mmHg 60%
    07:00 +15°C° 0 mm 1 mps 711 mmHg 56%
    08:00 +16°C° 0 mm 1 mps 711 mmHg 53%
    09:00 +20°C° 0 mm 1 mps 711 mmHg 46%
    10:00 +23°C° 0 mm 1 mps 711 mmHg 39%
    11:00 +25°C° 0 mm 1 mps 711 mmHg 33%
    12:00 +26°C° 0 mm 1 mps 711 mmHg 31%
    13:00 +27°C° 0 mm 1 mps 711 mmHg 30%
    14:00 +28°C° 0 mm 1 mps 710 mmHg 29%
    15:00 +26°C° 0 mm 1 mps 710 mmHg 32%
    16:00 +25°C° 0 mm 1 mps 710 mmHg 36%
    17:00 +23°C° 0 mm 1 mps 709 mmHg 39%
    18:00 +22°C° 0.1 mm 1 mps 709 mmHg 47%
    19:00 +20°C° 0.1 mm 1 mps 710 mmHg 55%
    20:00 +19°C° 0.1 mm 1 mps 710 mmHg 62%
    21:00 +18°C° 0.1 mm 1 mps 710 mmHg 63%
    22:00 +18°C° 0.1 mm 1 mps 709 mmHg 63%
    23:00 +16°C° 0.1 mm 1 mps 709 mmHg 64%

    Day after tomorrow, 24 September, Tuesday

    Time Temperature Precipitation Wind Pressure Humidity
    00:00 +16°C° 0 mm 1 mps 709 mmHg 64%
    01:00 +15°C° 0 mm 1 mps 709 mmHg 65%
    02:00 +14°C° 0 mm 0 mps 709 mmHg 65%
    03:00 +14°C° 0 mm 1 mps 708 mmHg 66%
    04:00 +14°C° 0 mm 1 mps 708 mmHg 67%
    05:00 +14°C° 0 mm 1 mps 708 mmHg 68%
    06:00 +14°C° 0 mm 1 mps 708 mmHg 66%
    07:00 +15°C° 0 mm 1 mps 708 mmHg 64%
    08:00 +16°C° 0 mm 1 mps 708 mmHg 62%
    09:00 +15°C° 1.7 mm 1 mps 708 mmHg 71%
    10:00 +15°C° 1.7 mm 1 mps 708 mmHg 80%
    11:00 +14°C° 1.7 mm 1 mps 707 mmHg 89%
    12:00 +14°C° 2.7 mm 1 mps 707 mmHg 90%
    13:00 +15°C° 2.7 mm 1 mps 707 mmHg 91%
    14:00 +15°C° 2.7 mm 2 mps 707 mmHg 92%
    15:00 +15°C° 0.1 mm 1 mps 707 mmHg 91%
    16:00 +15°C° 0.1 mm 1 mps 707 mmHg 90%
    17:00 +16°C° 0.1 mm 1 mps 707 mmHg 89%
    18:00 +15°C° 0.1 mm 1 mps 707 mmHg 90%
    19:00 +15°C° 0.1 mm 1 mps 707 mmHg 92%
    20:00 +14°C° 0.1 mm 1 mps 707 mmHg 94%
    21:00 +14°C° 0.1 mm 1 mps 707 mmHg 94%
    22:00 +14°C° 0.1 mm 1 mps 707 mmHg 94%
    23:00 +13°C° 0.1 mm 0 mps 708 mmHg 94%

    25 September, Wednesday

    Time Temperature Precipitation Wind Pressure Humidity
    00:00 +13°C° 0 mm 0 mps 707 mmHg 94%
    01:00 +13°C° 0 mm 0 mps 707 mmHg 93%
    02:00 +12°C° 0 mm 0 mps 707 mmHg 93%
    03:00 +12°C° 0 mm 0 mps 707 mmHg 93%
    04:00 +12°C° 0 mm 0 mps 707 mmHg 93%
    05:00 +12°C° 0 mm 0 mps 707 mmHg 93%
    06:00 +13°C° 0 mm 0 mps 707 mmHg 91%
    07:00 +13°C° 0 mm 0 mps 707 mmHg 89%
    08:00 +14°C° 0 mm 0 mps 707 mmHg 87%
    09:00 +16°C° 0 mm 0 mps 708 mmHg 81%
    10:00 +19°C° 0 mm 1 mps 708 mmHg 76%
    11:00 +21°C° 0 mm 1 mps 708 mmHg 70%
    12:00 +21°C° 0.1 mm 1 mps 708 mmHg 67%
    13:00 +22°C° 0.1 mm 1 mps 708 mmHg 64%
    14:00 +23°C° 0.1 mm 1 mps 707 mmHg 61%
    15:00 +22°C° 0.3 mm 1 mps 707 mmHg 65%
    16:00 +21°C° 0.3 mm 1 mps 707 mmHg 70%
    17:00 +20°C° 0.3 mm 2 mps 707 mmHg 75%
    18:00 +20°C° 0.2 mm 1 mps 707 mmHg 79%
    19:00 +19°C° 0.2 mm 1 mps 707 mmHg 84%
    20:00 +18°C° 0.2 mm 1 mps 707 mmHg 88%
    21:00 +16°C° 0.1 mm 1 mps 707 mmHg 89%
    22:00 +15°C° 0.1 mm 1 mps 707 mmHg 91%
    23:00 +15°C° 0.1 mm 1 mps 707 mmHg 92%

    26 September, Thursday

    Time Temperature Precipitation Wind Pressure Humidity
    00:00 +15°C° 0 mm 1 mps 707 mmHg 92%
    01:00 +15°C° 0 mm 1 mps 707 mmHg 93%
    02:00 +14°C° 0 mm 1 mps 707 mmHg 93%
    03:00 +14°C° 0 mm 1 mps 707 mmHg 93%
    04:00 +14°C° 0 mm 1 mps 707 mmHg 94%
    05:00 +14°C° 0 mm 1 mps 707 mmHg 94%
    06:00 +15°C° 0 mm 1 mps 708 mmHg 91%
    07:00 +16°C° 0 mm 1 mps 708 mmHg 89%
    08:00 +16°C° 0 mm 1 mps 708 mmHg 87%
    09:00 +19°C° 0.1 mm 1 mps 708 mmHg 79%
    10:00 +19°C° 0.1 mm 2 mps 709 mmHg 72%
    11:00 +20°C° 0.1 mm 2 mps 709 mmHg 64%
    12:00 +20°C° 0.2 mm 2 mps 709 mmHg 66%
    13:00 +19°C° 0.2 mm 2 mps 709 mmHg 68%
    14:00 +19°C° 0.2 mm 2 mps 709 mmHg 70%
    15:00 +18°C° 0.1 mm 2 mps 709 mmHg 73%
    16:00 +18°C° 0.1 mm 2 mps 709 mmHg 75%
    17:00 +17°C° 0.1 mm 2 mps 709 mmHg 77%
    18:00 +16°C° 0 mm 2 mps 709 mmHg 82%
    19:00 +15°C° 0 mm 2 mps 709 mmHg 86%
    20:00 +14°C° 0 mm 1 mps 709 mmHg 91%
    21:00 +13°C° 0 mm 1 mps 710 mmHg 91%
    22:00 +13°C° 0 mm 1 mps 710 mmHg 92%
    23:00 +13°C° 0 mm 1 mps 710 mmHg 92%

    27 September, Friday

    Time Temperature Precipitation Wind Pressure Humidity
    00:00 +12°C° 0 mm 1 mps 710 mmHg 92%
    01:00 +12°C° 0 mm 1 mps 710 mmHg 92%
    02:00 +12°C° 0 mm 1 mps 710 mmHg 92%
    03:00 +11°C° 0 mm 1 mps 710 mmHg 92%
    04:00 +11°C° 0 mm 1 mps 711 mmHg 92%
    05:00 +11°C° 0 mm 1 mps 711 mmHg 91%
    06:00 +11°C° 0 mm 1 mps 711 mmHg 88%
    07:00 +12°C° 0 mm 1 mps 711 mmHg 84%
    08:00 +13°C° 0 mm 1 mps 711 mmHg 80%
    09:00 +15°C° 0 mm 1 mps 712 mmHg 70%
    10:00 +18°C° 0 mm 1 mps 712 mmHg 60%
    11:00 +21°C° 0 mm 1 mps 713 mmHg 50%
    12:00 +22°C° 0 mm 1 mps 712 mmHg 46%
    13:00 +23°C° 0 mm 1 mps 712 mmHg 41%
    14:00 +24°C° 0 mm 1 mps 712 mmHg 37%
    15:00 +23°C° 0 mm 1 mps 712 mmHg 38%
    16:00 +23°C° 0 mm 1 mps 711 mmHg 39%
    17:00 +23°C° 0 mm 1 mps 711 mmHg 41%
    18:00 +21°C° 0 mm 1 mps 711 mmHg 46%
    19:00 +17°C° 0 mm 0 mps 712 mmHg 51%
    20:00 +15°C° 0 mm 0 mps 712 mmHg 56%
    21:00 +14°C° 0 mm 0 mps 712 mmHg 57%
    22:00 +14°C° 0 mm 0 mps 712 mmHg 58%
    23:00 +13°C° 0 mm 0 mps 712 mmHg 59%
    Show more